QPF
0.04 0.03 0.03 0.03 0.03 0.04 0.04 0.05 0.05 0.06 0.07 0.07 0.04 0.03 0.03 0.03 0.03 0.04 0.04 0.05 0.05 0.05 0.06 0.08 0.10 0.10 0.10 0.09 0.09 0.09 0.09 0.10 0.12 0.12 0.12 0.12 0.13 0.11 0.11 0.11 0.13 0.13 0.12
0.04 0.04 0.05 0.05 0.05 0.04 0.04 0.05 0.05 0.05 0.06 0.05 0.04 0.03 0.03 0.03 0.03 0.03 0.03 0.04 0.04 0.05 0.05 0.06 0.09 0.11 0.11 0.13 0.12 0.09 0.07 0.07 0.09 0.10 0.11 0.12 0.12 0.11 0.10 0.10 0.12 0.12 0.12
0.03 0.04 0.04 0.05 0.05 0.06 0.07 0.07 0.07 0.06 0.05 0.04 0.03 0.03 0.03 0.03 0.03 0.03 0.03 0.03 0.05 0.04 0.04 0.04 0.06 0.09 0.11 0.13 0.14 0.11 0.10 0.08 0.08 0.08 0.10 0.12 0.12 0.11 0.10 0.09 0.10 0.12 0.13
0.04 0.05 0.04 0.04 0.04 0.05 0.06 0.06 0.06 0.05 0.05 0.04 0.04 0.03 0.03 0.03 0.04 0.05 0.05 0.05 0.06 0.05 0.05 0.03 0.04 0.05 0.07 0.11 0.14 0.13 0.13 0.11 0.09 0.08 0.08 0.08 0.09 0.09 0.10 0.10 0.09 0.10 0.12
0.04 0.06 0.05 0.05 0.06 0.06 0.05 0.04 0.03 0.03 0.03 0.04 0.04 0.04 0.04 0.04 0.04 0.05 0.06 0.06 0.07 0.07 0.07 0.03 0.03 0.04 0.05 0.07 0.10 0.12 0.13 0.11 0.09 0.08 0.08 0.07 0.07 0.07 0.08 0.09 0.09 0.11 0.11
0.05 0.07 0.06 0.07 0.07 0.06 0.05 0.04 0.03 0.03 0.03 0.03 0.03 0.03 0.04 0.03 0.03 0.03 0.04 0.05 0.07 0.06 0.05 0.04 0.04 0.04 0.04 0.05 0.07 0.10 0.13 0.14 0.12 0.12 0.10 0.09 0.07 0.07 0.07 0.08 0.08 0.08 0.09
0.06 0.06 0.06 0.06 0.07 0.05 0.05 0.04 0.03 0.03 0.03 0.03 0.03 0.03 0.03 0.02 0.03 0.03 0.04 0.05 0.06 0.05 0.05 0.04 0.05 0.05 0.05 0.04 0.05 0.07 0.11 0.13 0.15 0.16 0.15 0.12 0.09 0.07 0.07 0.08 0.06 0.05 0.06
0.06 0.04 0.04 0.06 0.05 0.04 0.04 0.04 0.04 0.04 0.04 0.04 0.04 0.04 0.04 0.03 0.03 0.03 0.04 0.04 0.05 0.06 0.05 0.05 0.05 0.05 0.05 0.06 0.04 0.04 0.06 0.09 0.13 0.15 0.16 0.14 0.11 0.08 0.07 0.08 0.09 0.07 0.06
0.06 0.04 0.04 0.05 0.05 0.05 0.04 0.04 0.04 0.05 0.04 0.03 0.03 0.04 0.05 0.04 0.03 0.04 0.04 0.04 0.05 0.06 0.05 0.05 0.06 0.06 0.04 0.05 0.05 0.04 0.04 0.06 0.10 0.12 0.13 0.12 0.11 0.09 0.08 0.08 0.10 0.10 0.08
0.05 0.04 0.04 0.04 0.04 0.04 0.04 0.04 0.04 0.04 0.04 0.03 0.03 0.03 0.05 0.06 0.05 0.04 0.04 0.04 0.05 0.06 0.05 0.04 0.04 0.04 0.04 0.04 0.05 0.04 0.03 0.04 0.07 0.10 0.12 0.12 0.11 0.10 0.08 0.08 0.08 0.10 0.10
0.03 0.03 0.03 0.04 0.04 0.05 0.04 0.04 0.04 0.04 0.05 0.05 0.04 0.04 0.03 0.04 0.05 0.05 0.05 0.05 0.05 0.06 0.06 0.05 0.05 0.05 0.04 0.04 0.05 0.05 0.04 0.04 0.06 0.10 0.12 0.13 0.15 0.13 0.11 0.10 0.09 0.09 0.10
0.04 0.04 0.03 0.04 0.04 0.04 0.04 0.04 0.05 0.06 0.05 0.06 0.06 0.05 0.04 0.04 0.04 0.05 0.05 0.07 0.07 0.07 0.06 0.05 0.05 0.05 0.05 0.04 0.03 0.03 0.05 0.07 0.09 0.12 0.11 0.10 0.13 0.14 0.11 0.10 0.10 0.10 0.10
0.07 0.06 0.05 0.05 0.05 0.05 0.03 0.04 0.05 0.05 0.05 0.05 0.05 0.05 0.05 0.05 0.05 0.05 0.05 0.06 0.08 0.09 0.06 0.05 0.04 0.05 0.06 0.05 0.04 0.03 0.05 0.07 0.12 0.16 0.13 0.10 0.08 0.11 0.12 0.11 0.10 0.09 0.09
0.05 0.06 0.07 0.05 0.05 0.04 0.03 0.04 0.06 0.06 0.05 0.05 0.05 0.04 0.05 0.04 0.05 0.05 0.06 0.07 0.08 0.08 0.06 0.05 0.04 0.04 0.06 0.05 0.05 0.04 0.04 0.06 0.09 0.14 0.16 0.12 0.08 0.08 0.10 0.11 0.11 0.09 0.08
0.04 0.06 0.07 0.05 0.04 0.04 0.05 0.04 0.05 0.06 0.06 0.05 0.05 0.04 0.04 0.05 0.05 0.04 0.05 0.07 0.08 0.09 0.06 0.05 0.04 0.04 0.04 0.05 0.05 0.04 0.04 0.04 0.07 0.08 0.11 0.11 0.10 0.08 0.09 0.08 0.08 0.07 0.07
0.03 0.05 0.05 0.05 0.06 0.08 0.07 0.04 0.04 0.04 0.04 0.04 0.04 0.03 0.04 0.05 0.04 0.04 0.03 0.04 0.06 0.08 0.07 0.06 0.05 0.04 0.04 0.04 0.04 0.03 0.03 0.03 0.05 0.06 0.06 0.08 0.08 0.07 0.06 0.05 0.05 0.05 0.04
0.03 0.03 0.04 0.03 0.05 0.04 0.04 0.04 0.03 0.02 0.02 0.02 0.03 0.04 0.04 0.04 0.04 0.03 0.03 0.03 0.04 0.06 0.06 0.05 0.05 0.03 0.04 0.05 0.05 0.05 0.04 0.04 0.05 0.05 0.05 0.06 0.05 0.04 0.03 0.03 0.03 0.03 0.03
0.01 0.02 0.02 0.02 0.02 0.02 0.02 0.02 0.03 0.02 0.02 0.02 0.02 0.02 0.03 0.03 0.03 0.03 0.03 0.03 0.03 0.04 0.05 0.05 0.04 0.05 0.04 0.05 0.06 0.07 0.06 0.06 0.05 0.05 0.04 0.04 0.03 0.03 0.02 0.02 0.02 0.02 0.02
0.02 0.02 0.02 0.02 0.02 0.02 0.01 0.02 0.03 0.03 0.03 0.03 0.03 0.03 0.02 0.03 0.03 0.02 0.03 0.03 0.04 0.04 0.05 0.04 0.04 0.05 0.05 0.04 0.04 0.05 0.04 0.06 0.04 0.04 0.03 0.04 0.04 0.03 0.01 0.01 0.01 0.01 0.01
0.01 0.02 0.02 0.02 0.02 0.02 0.01 0.02 0.02 0.03 0.04 0.03 0.03 0.03 0.02 0.03 0.03 0.02 0.02 0.03 0.04 0.05 0.05 0.05 0.04 0.04 0.04 0.03 0.04 0.05 0.05 0.05 0.04 0.04 0.04 0.04 0.04 0.03 0.02 0.01 0.01 0.01 0.01
0.01 0.01 0.02 0.02 0.02 0.02 0.01 0.02 0.02 0.03 0.03 0.04 0.03 0.03 0.02 0.02 0.02 0.02 0.02 0.03 0.04 0.04 0.03 0.04 0.04 0.04 0.04 0.04 0.04 0.05 0.05 0.04 0.03 0.03 0.03 0.03 0.03 0.03 0.03 0.02 0.01 0.01 0.01
0.02 0.02 0.02 0.02 0.02 0.02 0.01 0.01 0.02 0.02 0.03 0.03 0.03 0.03 0.02 0.02 0.02 0.02 0.03 0.03 0.04 0.04 0.03 0.03 0.03 0.03 0.03 0.03 0.04 0.04 0.04 0.05 0.05 0.04 0.03 0.03 0.03 0.03 0.03 0.02 0.01 0.01 0.01
0.02 0.02 0.02 0.02 0.02 0.01 0.01 0.01 0.01 0.02 0.02 0.03 0.04 0.04 0.03 0.02 0.03 0.03 0.02 0.03 0.03 0.02 0.03 0.03 0.03 0.04 0.03 0.03 0.03 0.03 0.03 0.03 0.04 0.04 0.04 0.04 0.03 0.02 0.02 0.02 0.02 0.01 0.01
0.01 0.02 0.02 0.03 0.03 0.03 0.03 0.03 0.03 0.02 0.03 0.03 0.04 0.05 0.05 0.04 0.04 0.04 0.04 0.04 0.04 0.04 0.02 0.02 0.03 0.03 0.04 0.05 0.04 0.03 0.03 0.03 0.03 0.04 0.03 0.03 0.03 0.02 0.02 0.02 0.02 0.02 0.01
0.02 0.02 0.02 0.02 0.02 0.03 0.03 0.04 0.05 0.04 0.04 0.04 0.05 0.05 0.06 0.05 0.04 0.06 0.06 0.05 0.05 0.05 0.03 0.02 0.02 0.01 0.01 0.02 0.03 0.03 0.04 0.04 0.04 0.04 0.04 0.04 0.03 0.02 0.02 0.01 0.01 0.01 0.01
0.03 0.03 0.02 0.02 0.02 0.03 0.04 0.04 0.04 0.04 0.05 0.05 0.05 0.06 0.07 0.05 0.04 0.05 0.06 0.06 0.06 0.05 0.04 0.02 0.02 0.01 0.01 0.01 0.01 0.02 0.04 0.05 0.05 0.04 0.03 0.04 0.03 0.03 0.02 0.01 0.02 0.01 0.01
MSLP
1017.12 1016.98 1016.77 1016.52 1016.30 1016.11 1015.98 1015.89 1015.80 1015.69 1015.52 1015.27 1014.94 1014.56 1014.16 1013.78 1013.47 1013.26 1013.13 1013.06 1013.02 1012.97 1012.88 1012.73 1012.52 1012.29 1012.08 1011.93 1011.89 1011.96 1012.17 1012.48 1012.87 1013.30 1013.72 1014.12 1014.48 1014.80 1015.09 1015.38 1015.68 1015.99 1016.34
1017.25 1017.07 1016.83 1016.59 1016.37 1016.21 1016.09 1016.01 1015.94 1015.83 1015.64 1015.37 1015.00 1014.57 1014.11 1013.67 1013.29 1012.99 1012.78 1012.65 1012.57 1012.49 1012.39 1012.24 1012.05 1011.84 1011.63 1011.46 1011.38 1011.41 1011.56 1011.81 1012.14 1012.53 1012.94 1013.34 1013.73 1014.09 1014.44 1014.77 1015.11 1015.46 1015.83
1017.33 1017.14 1016.92 1016.70 1016.50 1016.35 1016.24 1016.16 1016.07 1015.93 1015.72 1015.41 1015.00 1014.52 1014.01 1013.50 1013.04 1012.67 1012.39 1012.19 1012.06 1011.96 1011.86 1011.73 1011.57 1011.39 1011.20 1011.04 1010.94 1010.92 1010.99 1011.17 1011.43 1011.75 1012.11 1012.50 1012.89 1013.28 1013.67 1014.05 1014.44 1014.84 1015.24
1017.35 1017.19 1017.00 1016.81 1016.64 1016.51 1016.39 1016.29 1016.16 1015.98 1015.72 1015.37 1014.92 1014.40 1013.84 1013.29 1012.77 1012.33 1011.99 1011.74 1011.56 1011.44 1011.33 1011.23 1011.10 1010.96 1010.80 1010.65 1010.54 1010.48 1010.49 1010.57 1010.74 1010.98 1011.27 1011.61 1011.98 1012.37 1012.79 1013.22 1013.66 1014.11 1014.56
1017.30 1017.18 1017.04 1016.90 1016.76 1016.63 1016.50 1016.36 1016.19 1015.96 1015.65 1015.25 1014.78 1014.24 1013.66 1013.07 1012.53 1012.04 1011.65 1011.34 1011.12 1010.97 1010.85 1010.76 1010.66 1010.55 1010.42 1010.29 1010.17 1010.07 1010.02 1010.03 1010.09 1010.23 1010.43 1010.69 1011.02 1011.39 1011.81 1012.27 1012.75 1013.25 1013.76
1017.19 1017.11 1017.03 1016.93 1016.83 1016.70 1016.55 1016.37 1016.14 1015.86 1015.51 1015.09 1014.60 1014.06 1013.49 1012.92 1012.36 1011.86 1011.42 1011.07 1010.79 1010.59 1010.44 1010.33 1010.23 1010.14 1010.04 1009.92 1009.80 1009.69 1009.59 1009.52 1009.50 1009.54 1009.64 1009.81 1010.06 1010.39 1010.78 1011.24 1011.74 1012.28 1012.83
1017.04 1017.00 1016.96 1016.91 1016.82 1016.70 1016.53 1016.31 1016.04 1015.71 1015.34 1014.91 1014.44 1013.93 1013.40 1012.86 1012.32 1011.80 1011.34 1010.93 1010.58 1010.31 1010.10 1009.94 1009.82 1009.72 1009.63 1009.53 1009.42 1009.31 1009.19 1009.07 1008.98 1008.93 1008.93 1009.01 1009.17 1009.41 1009.75 1010.17 1010.66 1011.21 1011.78
1016.87 1016.86 1016.85 1016.82 1016.75 1016.63 1016.44 1016.19 1015.89 1015.54 1015.16 1014.76 1014.33 1013.87 1013.40 1012.90 1012.40 1011.88 1011.38 1010.91 1010.48 1010.12 1009.81 1009.57 1009.40 1009.27 1009.17 1009.09 1009.01 1008.91 1008.80 1008.67 1008.54 1008.43 1008.35 1008.33 1008.39 1008.54 1008.79 1009.14 1009.58 1010.09 1010.66
1016.73 1016.72 1016.71 1016.69 1016.62 1016.49 1016.30 1016.03 1015.72 1015.37 1015.01 1014.64 1014.26 1013.88 1013.47 1013.04 1012.57 1012.06 1011.53 1010.99 1010.46 1009.98 1009.56 1009.21 1008.96 1008.78 1008.66 1008.59 1008.54 1008.48 1008.40 1008.30 1008.17 1008.03 1007.89 1007.79 1007.74 1007.78 1007.92 1008.17 1008.53 1008.99 1009.52
1016.62 1016.57 1016.55 1016.52 1016.45 1016.31 1016.11 1015.84 1015.53 1015.20 1014.86 1014.54 1014.22 1013.90 1013.57 1013.19 1012.76 1012.25 1011.69 1011.08 1010.45 1009.85 1009.30 1008.84 1008.48 1008.24 1008.10 1008.03 1008.01 1008.01 1007.99 1007.93 1007.83 1007.69 1007.53 1007.36 1007.23 1007.16 1007.19 1007.32 1007.57 1007.94 1008.40
1016.52 1016.43 1016.37 1016.32 1016.23 1016.09 1015.88 1015.62 1015.31 1015.00 1014.69 1014.40 1014.14 1013.88 1013.60 1013.28 1012.88 1012.38 1011.79 1011.12 1010.40 1009.69 1009.02 1008.44 1007.98 1007.67 1007.49 1007.42 1007.43 1007.47 1007.52 1007.53 1007.48 1007.36 1007.19 1006.99 1006.79 1006.63 1006.54 1006.56 1006.71 1006.98 1007.36
1016.42 1016.27 1016.17 1016.08 1015.97 1015.81 1015.60 1015.34 1015.04 1014.73 1014.44 1014.18 1013.95 1013.73 1013.50 1013.21 1012.84 1012.36 1011.75 1011.05 1010.27 1009.47 1008.70 1008.02 1007.47 1007.08 1006.84 1006.76 1006.78 1006.86 1006.96 1007.03 1007.03 1006.96 1006.80 1006.58 1006.34 1006.12 1005.95 1005.88 1005.93 1006.11 1006.42
1016.28 1016.07 1015.92 1015.80 1015.66 1015.48 1015.26 1014.99 1014.68 1014.37 1014.08 1013.82 1013.60 1013.40 1013.19 1012.93 1012.59 1012.13 1011.54 1010.83 1010.02 1009.18 1008.34 1007.58 1006.95 1006.49 1006.20 1006.07 1006.08 1006.17 1006.29 1006.40 1006.45 1006.41 1006.28 1006.07 1005.82 1005.56 1005.35 1005.22 1005.20 1005.32 1005.58
1016.08 1015.83 1015.63 1015.47 1015.30 1015.10 1014.86 1014.56 1014.24 1013.90 1013.58 1013.30 1013.06 1012.85 1012.65 1012.42 1012.11 1011.69 1011.14 1010.46 1009.67 1008.82 1007.96 1007.16 1006.47 1005.93 1005.57 1005.38 1005.34 1005.40 1005.52 1005.64 1005.71 1005.69 1005.59 1005.41 1005.17 1004.92 1004.70 1004.55 1004.51 1004.61 1004.84
1015.82 1015.53 1015.31 1015.11 1014.91 1014.68 1014.40 1014.08 1013.71 1013.33 1012.96 1012.63 1012.35 1012.12 1011.91 1011.69 1011.42 1011.06 1010.57 1009.96 1009.23 1008.41 1007.57 1006.75 1006.02 1005.42 1004.98 1004.71 1004.59 1004.59 1004.66 1004.75 1004.81 1004.82 1004.74 1004.59 1004.39 1004.18 1003.99 1003.86 1003.85 1003.95 1004.18
1015.52 1015.21 1014.96 1014.74 1014.51 1014.24 1013.93 1013.55 1013.13 1012.69 1012.26 1011.87 1011.54 1011.26 1011.04 1010.83 1010.60 1010.29 1009.89 1009.36 1008.72 1007.97 1007.17 1006.37 1005.62 1004.97 1004.45 1004.09 1003.87 1003.78 1003.77 1003.81 1003.84 1003.84 1003.78 1003.67 1003.53 1003.37 1003.24 1003.18 1003.21 1003.35 1003.60
1015.21 1014.90 1014.63 1014.38 1014.12 1013.82 1013.46 1013.03 1012.55 1012.05 1011.54 1011.08 1010.69 1010.37 1010.11 1009.90 1009.70 1009.46 1009.14 1008.71 1008.16 1007.51 1006.78 1006.01 1005.26 1004.57 1003.99 1003.54 1003.22 1003.02 1002.92 1002.89 1002.87 1002.86 1002.82 1002.75 1002.67 1002.59 1002.54 1002.55 1002.64 1002.82 1003.10
1014.91 1014.60 1014.32 1014.05 1013.76 1013.42 1013.02 1012.54 1012.01 1011.44 1010.87 1010.34 1009.88 1009.50 1009.22 1009.00 1008.81 1008.62 1008.37 1008.03 1007.58 1007.02 1006.37 1005.65 1004.92 1004.22 1003.59 1003.06 1002.66 1002.37 1002.18 1002.08 1002.02 1001.99 1001.96 1001.94 1001.92 1001.91 1001.94 1002.02 1002.17 1002.40 1002.69
1014.65 1014.33 1014.03 1013.74 1013.42 1013.05 1012.61 1012.09 1011.51 1010.89 1010.26 1009.67 1009.15 1008.73 1008.41 1008.17 1007.99 1007.82 1007.62 1007.35 1006.98 1006.50 1005.92 1005.27 1004.57 1003.88 1003.23 1002.66 1002.20 1001.84 1001.60 1001.44 1001.35 1001.31 1001.30 1001.31 1001.35 1001.41 1001.50 1001.64 1001.84 1002.08 1002.38
1014.39 1014.07 1013.75 1013.43 1013.09 1012.69 1012.21 1011.67 1011.05 1010.39 1009.73 1009.10 1008.53 1008.07 1007.70 1007.43 1007.23 1007.07 1006.89 1006.66 1006.35 1005.94 1005.43 1004.83 1004.18 1003.52 1002.89 1002.32 1001.84 1001.46 1001.18 1001.00 1000.90 1000.86 1000.87 1000.92 1001.00 1001.10 1001.25 1001.43 1001.65 1001.90 1002.18
1014.11 1013.77 1013.44 1013.09 1012.71 1012.28 1011.79 1011.22 1010.60 1009.92 1009.24 1008.59 1008.00 1007.49 1007.09 1006.78 1006.55 1006.36 1006.18 1005.97 1005.68 1005.32 1004.86 1004.33 1003.74 1003.14 1002.55 1002.00 1001.54 1001.17 1000.90 1000.73 1000.64 1000.62 1000.65 1000.73 1000.84 1000.99 1001.16 1001.36 1001.58 1001.83 1002.08
1013.79 1013.42 1013.05 1012.67 1012.26 1011.81 1011.30 1010.73 1010.10 1009.44 1008.76 1008.11 1007.51 1006.98 1006.54 1006.20 1005.92 1005.70 1005.49 1005.26 1004.99 1004.65 1004.24 1003.76 1003.24 1002.70 1002.17 1001.69 1001.28 1000.95 1000.71 1000.56 1000.50 1000.51 1000.57 1000.67 1000.81 1000.98 1001.17 1001.38 1001.60 1001.83 1002.07
1013.38 1012.98 1012.57 1012.15 1011.71 1011.24 1010.72 1010.16 1009.55 1008.91 1008.26 1007.62 1007.03 1006.49 1006.03 1005.65 1005.33 1005.06 1004.81 1004.56 1004.28 1003.95 1003.57 1003.14 1002.69 1002.22 1001.76 1001.35 1001.00 1000.73 1000.54 1000.43 1000.40 1000.44 1000.53 1000.66 1000.82 1001.00 1001.20 1001.41 1001.64 1001.87 1002.10
1012.90 1012.46 1012.01 1011.55 1011.08 1010.58 1010.07 1009.52 1008.93 1008.33 1007.71 1007.11 1006.53 1006.00 1005.53 1005.12 1004.76 1004.45 1004.16 1003.87 1003.58 1003.25 1002.90 1002.51 1002.11 1001.71 1001.32 1000.98 1000.69 1000.47 1000.33 1000.26 1000.26 1000.32 1000.44 1000.58 1000.76 1000.96 1001.18 1001.40 1001.64 1001.88 1002.13
1012.36 1011.88 1011.38 1010.89 1010.39 1009.88 1009.37 1008.83 1008.28 1007.72 1007.15 1006.58 1006.03 1005.52 1005.04 1004.61 1004.23 1003.88 1003.55 1003.24 1002.92 1002.60 1002.25 1001.90 1001.54 1001.19 1000.86 1000.57 1000.33 1000.15 1000.04 1000.00 1000.02 1000.10 1000.23 1000.40 1000.59 1000.81 1001.05 1001.31 1001.57 1001.85 1002.13
1011.81 1011.29 1010.76 1010.23 1009.71 1009.20 1008.68 1008.17 1007.65 1007.12 1006.59 1006.06 1005.54 1005.05 1004.58 1004.14 1003.73 1003.35 1003.00 1002.66 1002.33 1002.01 1001.68 1001.35 1001.02 1000.70 1000.41 1000.15 999.94 999.79 999.69 999.66 999.69 999.78 999.91 1000.10 1000.31 1000.56 1000.83 1001.12 1001.43 1001.75 1002.08
Thickness
5711 5710 5708 5705 5705 5703 5702 5700 5700 5699 5699 5699 5699 5700 5700 5700 5700 5701 5701 5698 5696 5695 5695 5695 5696 5696 5696 5696 5697 5697 5697 5697 5697 5698 5698 5698 5697 5697 5697 5697 5697 5697 5696
5706 5705 5703 5700 5699 5697 5696 5694 5693 5692 5693 5692 5693 5693 5693 5694 5694 5693 5695 5694 5691 5690 5689 5690 5690 5691 5691 5691 5692 5692 5692 5693 5694 5694 5695 5695 5695 5695 5695 5694 5694 5695 5695
5700 5699 5698 5696 5694 5691 5689 5688 5687 5687 5687 5687 5686 5686 5687 5688 5688 5687 5688 5688 5688 5685 5684 5684 5684 5685 5685 5686 5686 5687 5687 5688 5689 5690 5691 5691 5692 5692 5693 5692 5692 5692 5693
5695 5693 5692 5690 5687 5686 5685 5684 5683 5682 5681 5681 5681 5681 5682 5682 5681 5681 5681 5681 5681 5681 5680 5679 5679 5679 5680 5680 5681 5682 5682 5683 5685 5686 5687 5688 5688 5689 5690 5690 5690 5690 5690
5689 5687 5686 5683 5681 5681 5679 5678 5677 5675 5674 5673 5675 5675 5676 5677 5676 5676 5675 5674 5674 5674 5674 5674 5673 5674 5674 5675 5675 5676 5677 5679 5680 5681 5682 5683 5684 5685 5686 5687 5687 5687 5688
5683 5681 5680 5677 5675 5675 5672 5670 5667 5667 5666 5666 5668 5669 5669 5670 5670 5670 5669 5668 5667 5667 5668 5669 5669 5669 5669 5669 5670 5671 5673 5674 5675 5677 5678 5679 5680 5682 5682 5683 5684 5684 5685
5677 5675 5675 5671 5669 5668 5665 5663 5661 5661 5660 5659 5659 5661 5663 5665 5663 5662 5662 5661 5661 5661 5661 5662 5662 5663 5664 5664 5664 5665 5667 5669 5670 5671 5673 5675 5676 5677 5678 5679 5680 5680 5681
5672 5671 5667 5666 5664 5661 5659 5656 5654 5653 5653 5652 5651 5651 5654 5657 5656 5658 5655 5654 5654 5654 5655 5655 5655 5656 5657 5659 5660 5660 5661 5662 5664 5666 5668 5670 5671 5672 5673 5674 5675 5676 5677
5666 5663 5661 5660 5657 5656 5654 5650 5647 5645 5645 5645 5644 5642 5642 5644 5646 5649 5647 5647 5646 5647 5648 5648 5649 5649 5650 5651 5653 5653 5654 5655 5657 5659 5662 5664 5666 5667 5668 5669 5670 5671 5673
5661 5658 5656 5653 5651 5650 5647 5645 5643 5640 5637 5638 5638 5636 5635 5634 5633 5637 5639 5640 5640 5640 5641 5642 5643 5643 5643 5644 5645 5645 5647 5648 5650 5653 5655 5658 5660 5661 5663 5664 5666 5667 5668
5656 5653 5651 5648 5646 5645 5642 5638 5635 5633 5633 5631 5631 5630 5630 5629 5628 5626 5628 5630 5633 5635 5636 5636 5637 5637 5637 5638 5638 5640 5641 5643 5645 5647 5649 5651 5653 5655 5658 5659 5661 5662 5664
5652 5649 5646 5643 5641 5639 5636 5633 5629 5627 5626 5624 5624 5625 5624 5623 5623 5623 5622 5623 5624 5628 5629 5631 5631 5632 5632 5633 5633 5633 5634 5636 5639 5641 5643 5645 5647 5649 5652 5654 5655 5657 5659
5648 5644 5642 5639 5636 5633 5630 5627 5625 5622 5621 5619 5619 5620 5620 5620 5619 5619 5617 5618 5619 5623 5624 5626 5627 5628 5628 5628 5628 5627 5628 5630 5632 5634 5637 5639 5641 5643 5645 5648 5649 5651 5653
5645 5641 5637 5634 5632 5629 5627 5623 5621 5619 5617 5616 5616 5614 5614 5615 5615 5614 5613 5612 5613 5617 5620 5620 5622 5623 5623 5623 5623 5623 5624 5624 5626 5628 5630 5632 5634 5636 5638 5640 5643 5645 5646
5640 5637 5633 5631 5628 5625 5622 5619 5617 5615 5613 5613 5613 5612 5611 5612 5611 5611 5610 5608 5606 5607 5613 5616 5617 5619 5619 5619 5619 5619 5620 5620 5621 5622 5624 5626 5627 5629 5631 5633 5635 5638 5639
5636 5633 5630 5627 5624 5622 5618 5615 5614 5612 5610 5609 5608 5608 5607 5608 5608 5607 5606 5606 5604 5603 5605 5612 5613 5615 5615 5616 5615 5615 5616 5616 5617 5618 5619 5620 5621 5623 5624 5626 5628 5631 5633
5632 5629 5626 5623 5621 5618 5615 5612 5611 5609 5607 5606 5606 5606 5605 5604 5604 5604 5603 5603 5602 5601 5601 5606 5609 5612 5611 5611 5612 5612 5612 5613 5615 5615 5615 5615 5616 5617 5618 5620 5622 5624 5626
5630 5627 5623 5620 5617 5615 5612 5609 5608 5606 5605 5604 5603 5603 5603 5602 5600 5600 5599 5600 5600 5599 5599 5601 5604 5607 5607 5608 5608 5608 5609 5611 5612 5612 5611 5611 5611 5612 5613 5614 5616 5618 5620
5627 5624 5620 5618 5615 5613 5610 5608 5606 5605 5603 5602 5601 5600 5600 5599 5597 5597 5596 5597 5598 5599 5598 5599 5601 5603 5604 5604 5604 5605 5607 5606 5607 5608 5608 5607 5608 5608 5609 5610 5611 5612 5614
5625 5622 5619 5616 5613 5611 5608 5606 5605 5603 5602 5601 5600 5599 5598 5597 5595 5594 5594 5594 5594 5595 5596 5597 5599 5600 5600 5601 5601 5601 5602 5603 5604 5606 5605 5606 5606 5605 5606 5607 5608 5608 5609
5624 5621 5618 5615 5612 5609 5605 5603 5602 5602 5600 5599 5598 5598 5597 5594 5591 5590 5591 5591 5591 5591 5593 5595 5596 5597 5597 5596 5597 5598 5599 5599 5600 5602 5603 5604 5606 5606 5606 5605 5604 5604 5604
5621 5618 5616 5613 5610 5607 5601 5598 5596 5599 5599 5597 5596 5596 5596 5594 5591 5588 5586 5585 5585 5586 5588 5589 5592 5592 5592 5594 5594 5595 5595 5596 5596 5600 5599 5601 5604 5604 5605 5605 5605 5603 5601
5619 5616 5614 5611 5608 5604 5598 5595 5593 5595 5597 5596 5595 5594 5595 5595 5591 5590 5588 5585 5584 5583 5582 5584 5587 5588 5589 5591 5591 5591 5592 5592 5593 5596 5596 5597 5601 5601 5603 5604 5602 5600 5598
5617 5614 5611 5610 5607 5602 5597 5594 5592 5594 5596 5596 5595 5594 5592 5592 5590 5587 5587 5587 5587 5587 5585 5584 5584 5585 5587 5587 5587 5588 5588 5589 5590 5592 5593 5594 5598 5600 5602 5601 5598 5597 5595
5615 5613 5611 5608 5605 5601 5596 5593 5590 5595 5596 5596 5595 5594 5592 5590 5585 5582 5583 5585 5586 5587 5585 5583 5582 5582 5581 5582 5582 5584 5586 5587 5589 5592 5593 5592 5595 5597 5598 5598 5597 5594 5592
5615 5613 5610 5607 5604 5600 5595 5592 5589 5595 5595 5596 5595 5594 5590 5587 5582 5579 5581 5582 5583 5584 5584 5585 5583 5582 5582 5583 5580 5580 5584 5585 5587 5589 5591 5590 5591 5592 5593 5596 5596 5594 5591